EW4363 Weather Reports


Display with metric or nautical units.
time (UTC)temp
F
wind
direction
speed
MPH
gust
MPH
rain 1hr
in
rain 24hr
in
rain mn
in
humidity
%
barometer
mb
20260904041805 73 286 0.0 0.0 0.00 0.00 0.00 83 1019.0
20260904041306 74 286 0.0 0.0 0.00 0.00 0.00 83 1019.1
20260904040306 74 311 0.0 1.0 0.00 0.00 0.00 83 1019.1
20260904035806 74 271 0.0 2.0 0.00 0.00 0.00 83 1019.1
20260904034805 74 271 2.0 5.0 0.00 0.00 0.00 83 1019.2
20260904034306 74 268 2.0 6.0 0.00 0.00 0.00 83 1019.2
20260904033806 74 274 3.0 6.0 0.00 0.00 0.00 83 1019.3
20260904033305 74 271 2.0 6.0 0.00 0.00 0.00 83 1019.4
20260904032807 74 261 1.0 3.0 0.00 0.00 0.00 83 1019.4
20260904032306 74 271 2.0 3.0 0.00 0.00 0.00 83 1019.4
20260904031806 74 271 0.0 3.0 0.00 0.00 0.00 83 1019.4
20260904031306 74 296 0.0 3.0 0.00 0.00 0.00 83 1019.4
20260904030806 74 271 2.0 5.0 0.00 0.00 0.00 83 1019.5
20260904030306 74 277 1.0 3.0 0.00 0.00 0.00 83 1019.5
20260904025806 74 268 2.0 5.0 0.00 0.00 0.00 82 1019.5
20260904025307 74 282 1.0 5.0 0.00 0.00 0.00 82 1019.6
20260904024806 74 272 1.0 3.0 0.00 0.00 0.00 82 1019.6
20260904024305 74 270 1.0 3.0 0.00 0.00 0.00 82 1019.6
20260904023805 74 279 1.0 3.0 0.00 0.00 0.00 82 1019.7
20260904022806 75 258 0.0 1.0 0.00 0.00 0.00 82 1019.7
20260904022306 75 257 0.0 1.0 0.00 0.00 0.00 82 1019.7
20260904021305 75 277 1.0 3.0 0.00 0.00 0.00 82 1019.7
20260904020806 75 275 0.0 2.0 0.00 0.00 0.00 83 1019.8
20260904020305 75 272 0.0 3.0 0.00 0.00 0.00 83 1019.8
20260904015806 75 276 0.0 1.0 0.00 0.00 0.00 83 1019.8
20260904015307 75 255 1.0 3.0 0.00 0.00 0.00 83 1019.9
20260904014806 75 272 1.0 3.0 0.00 0.00 0.00 83 1019.9
20260904014306 75 273 1.0 3.0 0.00 0.00 0.00 83 1020.1
20260904013805 75 264 1.0 3.0 0.00 0.00 0.00 83 1020.1
20260904013307 75 276 0.0 3.0 0.00 0.00 0.00 83 1020.1
20260904012806 75 273 0.0 3.0 0.00 0.00 0.00 83 1020.1
20260904012306 75 263 0.0 5.0 0.00 0.00 0.00 83 1020.2
20260904011807 75 259 1.0 5.0 0.00 0.00 0.00 83 1020.2
20260904010804 75 322 1.0 3.0 0.00 0.00 0.00 83 1020.3
20260904010305 75 264 1.0 3.0 0.00 0.00 0.00 83 1020.4
20260904005306 75 274 0.0 2.0 0.00 0.00 0.00 84 1020.3
20260904004804 75 254 0.0 0.0 0.00 0.00 0.00 84 1020.3
20260904004305 75 255 0.0 0.0 0.00 0.00 0.00 84 1020.4
20260904003804 75 255 0.0 0.0 0.00 0.00 0.00 84 1020.4
20260904003305 76 255 0.0 0.0 0.00 0.00 0.00 83 1020.5
20260904002804 76 255 0.0 0.0 0.00 0.00 0.00 83 1020.6
20260904002306 76 255 0.0 1.0 0.00 0.00 0.00 83 1020.6
20260904001804 76 272 0.0 1.0 0.00 0.00 0.00 83 1020.6
20260904001305 76 264 0.0 2.0 0.00 0.00 0.00 84 1020.6
20260904000804 76 274 0.0 2.0 0.00 0.00 0.00 83 1020.7
20260904000304 76 281 0.0 0.0 0.00 0.00 0.00 83 1020.6
20260903235804 76 281 0.0 0.0 0.00 0.00 0.00 83 1020.7
20260903235305 76 283 0.0 0.0 0.00 0.00 0.00 83 1020.6
20260903234804 76 283 0.0 0.0 0.00 0.00 0.00 82 1020.8
20260903234304 76 283 0.0 0.0 0.00 0.00 0.00 82 1020.8
20260903233804 76 283 0.0 0.0 0.00 0.00 0.00 81 1020.8
20260903233304 77 283 0.0 0.0 0.00 0.00 0.00 81 1020.8
20260903232804 77 283 0.0 0.0 0.00 0.00 0.00 81 1020.8
20260903231804 77 283 0.0 0.0 0.00 0.00 0.00 81 1020.8
20260903230804 77 334 0.0 0.0 0.00 0.00 0.00 81 1020.8
20260903225306 78 333 0.0 1.0 0.00 0.00 0.00 81 1020.9
20260903224804 78 327 0.0 0.0 0.00 0.00 0.00 80 1020.9
20260903224305 78 327 0.0 0.0 0.00 0.00 0.00 81 1020.9
20260903223304 78 327 0.0 0.0 0.00 0.00 0.00 80 1020.9
20260903222805 78 327 0.0 0.0 0.00 0.00 0.00 80 1020.9
20260903222306 78 327 0.0 0.0 0.00 0.00 0.00 81 1020.9
20260903221304 78 327 0.0 0.0 0.00 0.00 0.00 79 1020.9
20260903220812 78 327 0.0 0.0 0.00 0.00 0.00 78 1020.9
20260903220305 78 327 0.0 0.0 0.00 0.00 0.00 78 1020.9
20260903215306 78 327 0.0 0.0 0.00 0.00 0.00 78 1020.9
20260903214804 78 327 0.0 0.0 0.00 0.00 0.00 78 1021.0
20260903213804 79 327 0.0 1.0 0.00 0.00 0.00 78 1020.9
20260903212804 79 328 0.0 1.0 0.00 0.00 0.00 78 1021.0
20260903211804 79 323 0.0 0.0 0.00 0.00 0.00 77 1021.0
20260903210805 79 323 0.0 0.0 0.00 0.00 0.00 77 1021.0
20260903210304 79 323 0.0 0.0 0.00 0.00 0.00 76 1020.9
20260903205804 80 323 0.0 0.0 0.00 0.00 0.00 76 1021.0
20260903205306 80 323 0.0 0.0 0.00 0.00 0.00 76 1021.0
20260903204804 80 325 0.0 1.0 0.00 0.00 0.00 76 1021.1
20260903204304 80 330 0.0 1.0 0.00 0.00 0.00 75 1021.1
20260903203805 80 331 0.0 1.0 0.00 0.00 0.00 75 1021.0
20260903203304 80 328 0.0 1.0 0.00 0.00 0.00 75 1021.1
20260903202306 80 327 0.0 1.0 0.00 0.00 0.00 74 1021.0
20260903201804 80 321 0.0 1.0 0.00 0.00 0.00 73 1021.0
20260903201305 80 323 0.0 1.0 0.00 0.00 0.00 73 1021.0
20260903200804 80 324 0.0 1.0 0.00 0.00 0.00 72 1020.9
20260903200304 80 324 0.0 2.0 0.00 0.00 0.00 72 1020.9
20260903195805 81 324 0.0 0.0 0.00 0.00 0.00 72 1020.9
20260903195306 81 327 0.0 0.0 0.00 0.00 0.00 71 1020.8
20260903194804 81 327 0.0 1.0 0.00 0.00 0.00 71 1020.8
20260903194304 81 327 0.0 0.0 0.00 0.00 0.00 70 1020.7
20260903193805 81 327 0.0 2.0 0.00 0.00 0.00 70 1020.7
20260903193304 81 326 0.0 2.0 0.00 0.00 0.00 70 1020.6
20260903192804 81 303 0.0 2.0 0.00 0.00 0.00 70 1020.5
20260903192306 81 324 0.0 3.0 0.00 0.00 0.00 69 1020.4
20260903191805 82 325 0.0 1.0 0.00 0.00 0.00 68 1020.4
20260903191304 82 325 0.0 2.0 0.00 0.00 0.00 68 1020.3
20260903185804 82 322 1.0 3.0 0.00 0.00 0.00 67 1020.1
20260903185306 82 324 2.0 3.0 0.00 0.00 0.00 67 1020.0
20260903184804 82 331 0.0 1.0 0.00 0.00 0.00 66 1019.9
20260903184304 82 331 0.0 3.0 0.00 0.00 0.00 66 1019.8
20260903183804 83 323 1.0 3.0 0.00 0.00 0.00 66 1019.8
20260903183304 83 326 2.0 5.0 0.00 0.00 0.00 65 1019.8
20260903182306 83 250 1.0 7.0 0.00 0.00 0.00 64 1019.7
20260903181805 83 324 1.0 5.0 0.00 0.00 0.00 63 1019.7
20260903181304 84 313 1.0 6.0 0.00 0.00 0.00 63 1019.7
20260903180304 84 297 1.0 7.0 0.00 0.00 0.00 62 1019.6
20260903175804 85 321 3.0 7.0 0.00 0.00 0.00 61 1019.6
20260903175306 85 321 2.0 7.0 0.00 0.00 0.00 60 1019.5
20260903174304 86 302 2.0 5.0 0.00 0.00 0.00 59 1019.5
20260903173304 87 319 3.0 7.0 0.00 0.00 0.00 57 1019.4
20260903172805 88 322 1.0 7.0 0.00 0.00 0.00 56 1019.4
20260903172306 88 307 2.0 5.0 0.00 0.00 0.00 55 1019.4
20260903171804 88 313 1.0 5.0 0.00 0.00 0.00 55 1019.3
20260903171305 88 328 1.0 5.0 0.00 0.00 0.00 54 1019.2
20260903170305 89 325 3.0 7.0 0.00 0.00 0.00 56 1019.3
20260903165305 89 315 2.0 7.0 0.00 0.00 0.00 55 1019.3
20260903164804 89 329 2.0 6.0 0.00 0.00 0.00 55 1019.3
20260903164305 89 316 2.0 9.0 0.00 0.00 0.00 55 1019.3
20260903163804 89 317 2.0 6.0 0.00 0.00 0.00 55 1019.4
20260903163304 90 315 5.0 10.0 0.00 0.00 0.00 54 1019.5
20260903162805 90 298 3.0 6.0 0.00 0.00 0.00 54 1019.4
20260903162306 90 316 3.0 8.0 0.00 0.00 0.00 54 1019.4
20260903161804 90 320 2.0 8.0 0.00 0.00 0.00 54 1019.4
20260903160805 90 315 2.0 8.0 0.00 0.00 0.00 54 1019.4
20260903160304 90 296 3.0 10.0 0.00 0.00 0.00 54 1019.4
20260903155804 90 322 3.0 8.0 0.00 0.00 0.00 54 1019.4
20260903155306 90 309 5.0 8.0 0.00 0.00 0.00 54 1019.4
20260903154805 91 308 3.0 8.0 0.00 0.00 0.00 54 1019.3
20260903154304 90 306 3.0 9.0 0.00 0.00 0.00 54 1019.4
20260903153805 90 317 3.0 10.0 0.00 0.00 0.00 53 1019.3
20260903153304 91 307 3.0 8.0 0.00 0.00 0.00 52 1019.4
20260903152306 91 299 3.0 8.0 0.00 0.00 0.00 52 1019.4
20260903151805 91 314 4.0 12.0 0.00 0.00 0.00 51 1019.3
20260903151305 92 315 5.0 12.0 0.00 0.00 0.00 50 1019.3
20260903150805 92 318 3.0 8.0 0.00 0.00 0.00 49 1019.2
20260903150305 93 310 5.0 10.0 0.00 0.00 0.00 48 1019.2
20260903145805 93 309 5.0 9.0 0.00 0.00 0.00 47 1019.4
20260903145306 94 316 3.0 8.0 0.00 0.00 0.00 46 1019.4
20260903144804 94 315 3.0 10.0 0.00 0.00 0.00 45 1019.4
20260903144305 94 316 4.0 7.0 0.00 0.00 0.00 44 1019.4
20260903143805 94 309 2.0 7.0 0.00 0.00 0.00 43 1019.4
20260903143304 95 316 4.0 8.0 0.00 0.00 0.00 42 1019.4
20260903142805 95 316 5.0 9.0 0.00 0.00 0.00 41 1019.4
20260903142306 95 323 2.0 7.0 0.00 0.00 0.00 40 1019.4
20260903141805 95 322 3.0 6.0 0.00 0.00 0.00 40 1019.4
20260903141305 95 301 2.0 6.0 0.00 0.00 0.00 39 1019.4
20260903140805 95 315 4.0 9.0 0.00 0.00 0.00 39 1019.4
20260903140305 95 324 3.0 8.0 0.00 0.00 0.00 40 1019.3
20260903135306 96 316 3.0 7.0 0.00 0.00 0.00 37 1019.4
20260903134804 96 324 1.0 3.0 0.00 0.00 0.00 37 1019.4
20260903134304 95 318 3.0 8.0 0.00 0.00 0.00 37 1019.5
20260903133805 96 297 2.0 7.0 0.00 0.00 0.00 37 1019.5
20260903133304 96 301 3.0 6.0 0.00 0.00 0.00 38 1019.6
20260903132306 96 319 3.0 7.0 0.00 0.00 0.00 38 1019.6
20260903131805 95 315 2.0 6.0 0.00 0.00 0.00 37 1019.6
20260903131304 95 316 1.0 3.0 0.00 0.00 0.00 37 1019.6
20260903130804 95 321 4.0 9.0 0.00 0.00 0.00 38 1019.6
20260903130304 95 321 3.0 6.0 0.00 0.00 0.00 40 1019.7
20260903125804 94 313 2.0 7.0 0.00 0.00 0.00 40 1019.7
20260903125305 94 323 2.0 6.0 0.00 0.00 0.00 40 1019.8
20260903124805 94 317 2.0 7.0 0.00 0.00 0.00 41 1019.8
20260903124304 94 327 3.0 8.0 0.00 0.00 0.00 42 1019.7
20260903123805 94 311 3.0 9.0 0.00 0.00 0.00 41 1019.8
20260903122805 94 303 2.0 7.0 0.00 0.00 0.00 40 1019.8
20260903122306 94 316 3.0 8.0 0.00 0.00 0.00 40 1019.9
20260903121807 94 318 3.0 8.0 0.00 0.00 0.00 40 1019.9
20260903121304 94 312 3.0 10.0 0.00 0.00 0.00 40 1019.9
20260903120805 94 312 3.0 6.0 0.00 0.00 0.00 38 1019.9
20260903120305 94 313 2.0 7.0 0.00 0.00 0.00 38 1019.9
20260903115804 94 317 3.0 7.0 0.00 0.00 0.00 38 1019.9
20260903115306 95 320 3.0 6.0 0.00 0.00 0.00 37 1020.0
20260903114805 95 304 1.0 5.0 0.00 0.00 0.00 37 1020.0
20260903114305 95 311 2.0 3.0 0.00 0.00 0.00 36 1020.0
20260903113805 94 323 2.0 6.0 0.00 0.00 0.00 36 1020.1
20260903112806 94 316 2.0 6.0 0.00 0.00 0.00 36 1020.2
20260903111805 94 324 2.0 6.0 0.00 0.00 0.00 35 1020.3
20260903111304 94 314 1.0 5.0 0.00 0.00 0.00 35 1020.5
20260903110804 94 315 1.0 5.0 0.00 0.00 0.00 35 1020.5
20260903110304 94 317 3.0 6.0 0.00 0.00 0.00 35 1020.6
20260903105805 94 316 1.0 3.0 0.00 0.00 0.00 35 1020.6
20260903105306 94 297 2.0 3.0 0.00 0.00 0.00 35 1020.7
20260903104806 93 319 0.0 2.0 0.00 0.00 0.00 36 1020.8
20260903104305 93 324 0.0 1.0 0.00 0.00 0.00 36 1020.9
20260903103805 93 325 1.0 3.0 0.00 0.00 0.00 36 1021.0
20260903103305 92 307 1.0 3.0 0.00 0.00 0.00 37 1021.1
20260903102306 92 323 2.0 5.0 0.00 0.00 0.00 38 1021.2
20260903101805 92 319 1.0 3.0 0.00 0.00 0.00 38 1021.3
20260903101304 91 291 0.0 2.0 0.00 0.00 0.00 38 1021.4
20260903100805 91 311 1.0 3.0 0.00 0.00 0.00 38 1021.3
20260903100305 91 315 1.0 3.0 0.00 0.00 0.00 38 1021.4
20260903095805 91 324 1.0 5.0 0.00 0.00 0.00 38 1021.4
20260903095306 91 315 2.0 6.0 0.00 0.00 0.00 38 1021.4
20260903094805 90 323 2.0 3.0 0.00 0.00 0.00 37 1021.4
20260903094305 90 326 1.0 2.0 0.00 0.00 0.00 39 1021.5
20260903093305 89 323 2.0 3.0 0.00 0.00 0.00 39 1021.5
20260903092804 89 303 0.0 3.0 0.00 0.00 0.00 40 1021.5
20260903092306 89 321 0.0 3.0 0.00 0.00 0.00 44 1021.5
20260903091804 88 324 0.0 2.0 0.00 0.00 0.00 45 1021.5
20260903091305 87 324 0.0 2.0 0.00 0.00 0.00 46 1021.5
20260903090804 87 324 0.0 1.0 0.00 0.00 0.00 48 1021.6
20260903090305 86 324 1.0 2.0 0.00 0.00 0.00 49 1021.5
20260903085306 85 316 0.0 0.0 0.00 0.00 0.00 51 1021.4
20260903084805 84 315 0.0 2.0 0.00 0.00 0.00 53 1021.4
20260903083804 82 278 0.0 1.0 0.00 0.00 0.00 57 1021.4
20260903083305 81 278 0.0 2.0 0.00 0.00 0.00 58 1021.4
20260903082805 81 267 0.0 3.0 0.00 0.00 0.00 59 1021.3
20260903082306 80 272 2.0 5.0 0.00 0.00 0.00 60 1021.4
20260903081305 79 272 2.0 6.0 0.00 0.00 0.00 61 1021.4
20260903080806 79 267 2.0 3.0 0.00 0.00 0.00 62 1021.4
20260903080306 78 264 2.0 3.0 0.00 0.00 0.00 63 1021.5
20260903075306 78 263 2.0 5.0 0.00 0.00 0.00 63 1021.5
20260903074805 78 281 0.0 1.0 0.00 0.00 0.00 64 1021.5
20260903074304 78 281 0.0 1.0 0.00 0.00 0.00 64 1021.5
20260903073805 77 282 1.0 2.0 0.00 0.00 0.00 65 1021.5
20260903072805 76 265 0.0 2.0 0.00 0.00 0.00 67 1021.6
20260903071805 76 315 0.0 1.0 0.00 0.00 0.00 69 1021.5
20260903071305 75 329 0.0 0.0 0.00 0.00 0.00 71 1021.5
20260903070305 73 290 0.0 1.0 0.00 0.00 0.00 74 1021.5
20260903065805 72 284 0.0 1.0 0.00 0.00 0.00 75 1021.4
20260903065306 72 284 0.0 1.0 0.00 0.00 0.00 75 1021.4
20260903064805 72 284 0.0 1.0 0.00 0.00 0.00 76 1021.4
20260903064305 71 284 0.0 2.0 0.00 0.00 0.00 76 1021.4
20260903063805 71 283 0.0 2.0 0.00 0.00 0.00 75 1021.3
20260903063305 71 290 1.0 2.0 0.00 0.00 0.00 75 1021.3
20260903062805 71 254 0.0 1.0 0.00 0.00 0.00 76 1021.2
20260903061805 70 281 0.0 2.0 0.00 0.00 0.00 77 1021.1
20260903061304 71 281 0.0 2.0 0.00 0.00 0.00 77 1021.1
20260903060805 71 273 1.0 3.0 0.00 0.00 0.00 76 1021.0
20260903060305 71 267 1.0 3.0 0.00 0.00 0.00 76 1021.0
20260903055805 71 272 1.0 5.0 0.00 0.00 0.00 76 1021.0
20260903055306 71 278 1.0 3.0 0.00 0.00 0.00 77 1020.9
20260903054805 71 272 1.0 5.0 0.00 0.00 0.00 77 1020.9
20260903054306 70 272 1.0 6.0 0.00 0.00 0.00 77 1020.9
20260903053805 70 275 3.0 6.0 0.00 0.00 0.00 77 1020.9
20260903053305 70 267 3.0 6.0 0.00 0.00 0.00 77 1020.8
20260903052307 70 269 2.0 6.0 0.00 0.00 0.00 76 1020.8
20260903051805 71 279 2.0 5.0 0.00 0.00 0.00 76 1020.7
20260903051304 71 270 2.0 8.0 0.00 0.00 0.00 76 1020.7
20260903050805 71 275 1.0 6.0 0.00 0.00 0.00 76 1020.6
20260903050305 71 270 1.0 3.0 0.00 0.00 0.00 76 1020.6
20260903045805 71 273 1.0 3.0 0.00 0.00 0.00 76 1020.6
20260903045306 71 253 0.0 3.0 0.00 0.00 0.00 76 1020.6
20260903044805 71 267 1.0 7.0 0.00 0.00 0.00 76 1020.6
20260903044305 71 285 1.0 3.0 0.00 0.00 0.00 77 1020.5
20260903043805 70 276 1.0 3.0 0.00 0.00 0.00 77 1020.5
20260903043305 70 333 0.0 0.0 0.00 0.00 0.00 78 1020.5
20260903042805 70 272 0.0 1.0 0.00 0.00 0.00 80 1020.5
20260903042306 70 264 0.0 0.0 0.00 0.00 0.00 80 1020.6